Flag for Germany Weather past 2 weeks in Cottbus, Brandenburg, Germany

Now
58 °F

Fog.


Feels Like: 58 °F
Forecast: 53 / 69 °F
Wind: 1 mph from Southeast

Location: Cottbus

Current Time: Oct 1, 2014 at 11:11:30 AM

Latest Report: Oct 1, 2014 at 10:00 AM


Visibility: 2 mi

Pressure: 30.32 "Hg

Humidity: 95%

Dew point: 56 °F

Location of CottbusLocation

Historic Weather in Cottbus — Graph

°F

Cottbus temperature yesterday

Maximum temperature yesterday: 70 °F (at 2:00 PM)
Minimum temperature yesterday: 55 °F (at 11:00 PM)
Average temperature yesterday: 62 °F

Past Weeks' High & Low Weather Summary

 TemperatureHumidityPressure
High77 °F (Sep 17, 4:00 PM)100% (Sep 24, 5:00 AM)30.40 "Hg (Sep 24, 5:00 AM)
Low37 °F (Sep 24, 4:00 AM)42% (Sep 18, 2:00 PM)29.80 "Hg (Sep 22, 2:00 PM)
Average59 °F80%30.06 "Hg
* Reported Sep 16 10:00 AM — Oct 1 10:00 AM, Cottbus, Weather by CustomWeather, © 2014

Note: Actual official high and low records may vary slightly from our data, if they occured in-between our weather recording intervals... More about our weather records

Advertising

Cottbus weather history for previous 24 hours

 ConditionsComfort  
Time TempWeatherWind HumidityBarometerVisibility
10:00 AM
Oct 1
58 °FFog.1 mph95%30.32 "Hg2 mi
9:00 AM56 °FFog.1 mph99%30.31 "Hg0 mi
8:00 AM56 °FFog.1 mph99%30.29 "Hg0 mi
7:00 AM56 °FFog.1 mph99%30.29 "Hg1 mi
6:00 AM56 °FFog.1 mph99%30.29 "Hg0 mi
5:00 AM57 °FLow clouds.1 mph99%30.29 "Hg1 mi
4:00 AM58 °FFog.1 mph97%30.29 "Hg3 mi
3:00 AM58 °FFog.1 mph97%30.28 "Hg3 mi
2:00 AM57 °FFog.No wind97%30.29 "Hg3 mi
1:00 AM57 °FFog.1 mph98%30.28 "Hg3 mi
12:00 AM56 °FFog.1 mph98%30.28 "Hg4 mi
11:00 PM
Sep 30
55 °FFog.1 mph98%30.27 "Hg2 mi
10:00 PM56 °FFog.1 mph98%30.27 "Hg3 mi
9:00 PM58 °FOvercast.1 mph97%30.27 "Hg6 mi
8:00 PM58 °FOvercast.1 mph95%30.26 "Hg6 mi
7:00 PM61 °FOvercast.1 mph90%30.24 "Hg11 mi
6:00 PM65 °FOvercast.2 mph79%30.23 "Hg16 mi
5:00 PM68 °FOvercast.2 mph73%30.23 "Hg15 mi
4:00 PM67 °FOvercast.2 mph75%30.23 "Hg16 mi
3:00 PM69 °FOvercast.3 mph68%30.22 "Hg16 mi
2:00 PM70 °FPartly sunny.3 mph69%30.22 "Hg9 mi
1:00 PM65 °FOvercast.2 mph80%30.23 "Hg7 mi
12:00 PM65 °FOvercast.1 mph80%30.23 "Hg7 mi
11:00 AM63 °FOvercast.1 mph85%30.23 "Hg9 mi
Weather by CustomWeather, © 2014

See weather overviewHow to use our weather pages